User: anonymous   Login
Location: Turtle Rock Observatory
(36.6913°N, 81.9708°W)
Time: 10:53:07
(UTC-05:00)
Language:

Cosmos 1125 Rocket - Orbit

View from above orbital plane
View from above orbital plane
View from above satellite
View from above satellite

Ground track
Ground track

The orbit data is extracted from the following two-line orbital elements,

1 11511U 79078B   14326.84601696  .00000266  00000-0  99302-4 0  9492
2 11511 074.0377 237.8726 0016091 346.6178 072.3639 14.36504541844027
Epoch (UTC): 22 November 2014 20:18:15
Eccentricity: 0.0016091
inclination: 74.0377°
perigee height: 758 km
apogee height: 781 km
right ascension of ascending node: 237.8726°
argument of perigee: 346.6178°
revolutions per day: 14.36504541
mean anomaly at epoch: 72.3639°
orbit number at epoch: 84402

The dashed part of the orbit path shows where the satellite is in the earth's shadow,  

DLR